SCP
-0 -0 -0 -0 -0 -0 -1 -1 -1 -1 -1 -1 -0 -0 -0 -0 -0 -0 -0 -0 0 -0 -0 -0 0 0 0 0 0 0 0 0 0 0 0 0 0 0 0 0 0 0 0
-0 -0 -0 -0 -0 -0 -0 -1 -1 -1 -1 -1 -1 -1 -0 -0 -0 -0 -0 0 -0 -0 -0 0 0 0 0 0 0 0 0 0 0 0 0 0 0 0 0 0 0 0 0
-1 -1 -0 -0 -0 -0 -0 -0 -1 -1 -1 -1 -1 -1 -1 -0 -0 -0 -0 -0 -0 -0 0 0 0 0 0 0 0 0 0 0 0 0 0 0 0 0 0 0 0 0 0
-1 -0 -0 -0 -0 -0 -0 -0 -1 -1 -1 -1 -1 -1 -0 -0 -0 -0 -0 0 -0 0 0 0 0 0 0 0 0 0 0 0 0 0 0 0 0 0 0 0 0 0 0
-0 -0 -0 -0 -0 -0 -0 -0 -0 -0 -0 -0 -0 -0 -0 -0 -0 -0 -0 0 0 0 0 0 0 0 0 0 0 0 0 0 0 0 0 0 0 0 0 0 0 0 0
-0 -0 -0 -0 -0 -0 -0 -0 -0 -0 -0 -0 -0 -0 -0 -0 -0 0 0 0 -0 0 0 0 0 0 0 0 0 0 0 0 0 0 0 0 0 0 0 0 0 0 0
-0 -0 -0 -0 -0 -0 -0 -0 0 -0 -0 -0 0 -0 0 0 0 0 0 -0 -0 -0 0 0 0 0 0 0 0 0 0 0 0 0 0 0 0 0 0 0 0 0 0
-0 0 0 0 0 0 0 0 0 -0 -0 0 0 0 0 0 0 0 0 0 -0 0 0 0 0 0 0 -0 -0 -0 -0 0 0 -0 -0 -0 -0 0 0 0 0 0 0
0 0 0 0 0 0 0 0 0 0 0 0 0 0 0 0 0 0 0 0 0 0 0 0 0 0 0 0 -0 0 -0 -0 -0 0 -0 -0 0 -0 0 0 0 0 0
0 0 0 0 0 0 0 0 0 0 0 0 0 0 0 0 0 0 0 0 0 0 0 0 0 0 0 0 -0 -0 0 0 -0 -0 0 0 -0 -0 -0 0 0 0 0
0 0 0 0 0 0 0 0 1 0 0 1 0 0 0 0 0 0 0 0 0 0 0 0 0 0 0 -0 0 -0 -0 0 -0 -0 -0 0 -0 -0 -0 0 0 1 0
-0 -0 -0 0 0 0 0 0 0 0 0 0 0 0 0 0 0 0 0 0 0 0 0 0 0 0 0 0 0 0 0 0 0 -0 -0 0 -0 -0 0 0 1 1 0
0 -0 -0 0 0 0 0 1 1 1 1 1 0 0 0 0 0 0 0 0 0 0 0 0 0 0 0 0 0 0 0 0 0 -0 0 0 -0 -0 -0 0 0 1 1
0 0 0 0 1 0 0 1 1 1 1 1 1 1 1 0 0 0 0 0 0 0 0 0 0 0 0 0 0 0 0 0 0 0 0 0 0 0 -0 0 0 0 1
0 0 0 1 1 1 1 1 1 1 1 1 1 1 1 0 0 0 0 0 0 0 0 0 0 0 0 0 0 0 0 0 0 0 0 0 0 0 0 0 0 0 1
0 0 1 1 2 2 1 2 1 1 1 1 1 1 1 1 1 0 0 0 0 0 0 0 0 0 0 0 0 0 0 0 0 0 0 0 0 0 0 0 0 0 0
0 1 1 1 1 2 1 2 2 1 1 1 1 1 1 1 0 1 0 1 0 0 0 0 0 0 0 0 0 0 0 0 0 0 0 0 0 0 0 0 0 0 1
0 0 1 1 1 1 1 1 1 1 1 1 1 1 1 0 1 0 1 1 1 1 1 1 1 1 1 1 1 1 1 0 0 0 0 0 0 0 1 0 1 1 1
0 0 0 1 1 1 1 1 1 1 1 1 1 1 1 0 0 1 1 1 1 1 1 1 1 1 1 1 1 1 1 1 1 1 0 0 0 0 1 1 1 1 1
0 0 0 1 1 1 1 1 1 1 1 1 1 1 1 1 1 1 1 1 1 1 1 1 1 1 1 1 1 1 1 1 1 1 1 1 1 1 1 1 1 1 1
0 0 0 1 1 1 1 1 1 1 1 1 1 1 1 1 1 1 1 1 1 1 1 1 1 1 1 1 2 2 1 1 1 1 1 1 1 1 1 1 1 1 1
0 0 0 0 1 1 1 1 1 1 1 1 1 1 1 1 1 1 1 1 1 1 1 1 1 1 1 1 2 2 1 1 0 1 1 1 1 1 1 1 0 1 1
0 0 0 0 1 1 1 2 2 2 2 2 3 4 2 2 2 2 2 2 2 2 2 2 1 1 1 2 1 1 1 1 1 1 1 0 0 0 0 0 0 0 1
0 0 0 0 1 1 1 2 2 2 2 2 2 2 1 1 1 1 1 1 1 2 1 1 2 1 2 2 2 2 1 1 0 0 1 1 0 -0 0 0 0 0 1
0 0 0 0 1 1 1 1 2 1 1 1 1 1 1 1 1 0 0 1 1 1 1 1 1 1 1 2 1 2 2 1 1 1 0 0 0 -0 0 1 0 0 0
0 0 0 0 0 0 0 0 1 1 1 1 1 0 0 0 0 0 0 0 1 0 1 1 1 1 1 1 1 2 2 2 1 1 1 1 0 0 0 1 0 0 0
Wind_Speed_500mb
46 48 47 45 42 38 36 34 34 38 40 40 37 34 26 18 17 18 28 31 31 28 26 23 18 15 14 15 16 17 18 20 19 18 23 24 24 23 23 24 22 17 15
47 49 50 46 42 39 37 35 33 36 37 35 34 29 22 19 17 19 29 29 28 24 20 17 14 12 13 13 13 14 15 14 11 13 17 19 20 20 21 24 23 17 16
44 47 48 46 41 39 36 34 33 34 35 34 32 25 20 17 18 23 29 27 25 21 17 14 14 13 12 11 10 11 9 9 10 11 11 15 16 17 19 20 20 19 17
44 46 46 45 42 38 36 33 33 34 33 33 28 22 18 19 22 28 28 25 22 18 15 13 13 12 10 8 8 7 7 5 7 8 10 9 11 12 14 15 16 16 15
48 46 46 44 41 38 35 33 32 32 31 28 23 20 21 23 26 28 26 22 19 16 14 12 11 9 7 5 4 4 5 1 4 6 7 6 4 6 9 11 12 11 11
48 46 45 43 40 35 33 33 32 30 28 24 21 24 27 27 27 26 24 21 18 14 12 11 10 8 7 5 4 5 7 8 9 9 8 8 5 4 7 9 9 7 7
48 48 45 43 39 35 32 31 30 29 28 25 25 29 29 28 26 25 22 20 18 16 14 11 10 9 8 8 7 8 10 12 13 15 13 10 6 6 6 7 10 7 6
42 45 46 44 40 35 33 30 27 27 28 27 28 30 28 27 25 24 21 19 18 16 15 14 12 10 9 9 10 11 14 16 17 19 19 17 12 9 10 11 13 11 5
44 43 46 45 42 37 35 32 27 24 26 28 28 28 27 26 25 23 22 20 19 17 15 13 10 10 10 11 12 15 17 20 20 21 21 20 19 16 13 11 14 14 13
41 43 44 45 45 44 41 37 31 27 25 27 28 28 26 25 25 24 23 23 21 19 16 14 12 12 13 13 14 15 19 25 26 23 24 22 19 16 15 14 15 13 17
46 48 48 49 49 47 43 40 37 34 30 29 30 30 30 30 27 26 25 23 22 19 18 18 17 16 16 16 16 17 20 22 26 29 25 20 20 18 17 18 18 22 19
45 48 50 50 50 49 47 46 43 41 40 38 36 34 32 31 29 26 27 25 24 24 24 23 21 20 21 20 21 21 22 24 26 24 18 17 15 16 19 21 20 19 19
43 47 51 52 52 51 52 50 47 45 45 44 42 39 37 35 33 32 30 28 28 27 27 26 25 26 25 25 26 26 26 27 27 29 22 20 21 22 25 26 26 22 20
37 40 45 49 51 53 55 52 50 49 47 47 46 43 43 41 39 37 34 32 31 30 29 29 30 29 31 30 33 32 31 32 31 34 31 28 28 26 25 24 25 26 22
39 38 41 45 48 51 55 56 56 52 49 45 43 43 44 43 42 41 39 38 37 36 34 34 34 34 36 36 37 37 37 38 38 37 36 36 37 32 30 26 22 24 26
34 36 43 49 52 52 53 58 56 53 51 44 41 40 35 35 38 38 40 43 42 40 39 39 40 40 41 42 40 40 40 41 43 40 39 39 38 37 35 29 30 23 21
25 27 34 43 54 61 59 59 56 56 51 45 41 37 32 26 24 23 23 26 38 40 38 39 40 42 43 45 45 41 39 40 38 38 41 44 43 39 33 31 30 30 26
38 33 31 36 46 53 64 65 63 56 52 44 39 33 31 21 28 32 27 23 26 29 32 34 32 31 33 39 42 41 40 38 37 38 40 40 42 41 38 36 34 30 30
40 42 36 29 29 44 47 63 66 57 51 45 38 37 35 32 38 33 34 31 31 35 31 36 35 32 36 34 33 36 39 39 40 41 46 45 46 45 45 44 39 35 34
44 46 46 40 35 42 44 47 59 58 53 53 44 37 35 36 35 37 33 27 29 34 32 38 37 37 37 34 31 36 39 43 42 45 47 51 52 54 50 50 50 47 44
39 50 50 43 38 39 47 44 50 56 58 51 43 36 37 35 36 34 32 31 33 34 34 36 38 40 46 49 54 56 51 51 51 46 44 44 50 51 57 59 60 59 57
31 42 51 50 46 42 51 49 54 58 62 52 45 41 43 39 39 36 34 33 31 32 34 35 38 42 49 45 43 47 47 55 58 71 76 60 54 47 47 50 55 58 60
18 30 42 51 53 54 60 59 59 62 55 52 52 47 42 39 32 30 30 29 28 30 31 33 38 41 44 45 47 39 29 27 45 59 68 84 69 72 64 68 60 57 52
30 33 39 49 60 65 67 67 65 60 57 54 42 42 41 30 22 22 21 23 25 26 28 30 35 42 43 47 39 54 56 54 40 42 41 63 72 76 79 85 77 74 70
29 39 46 50 56 64 61 54 54 52 47 40 36 28 20 17 17 21 18 16 19 23 26 28 32 38 41 45 45 51 59 61 51 51 57 63 67 90 88 84 85 88 87
23 17 17 23 27 29 33 30 23 16 17 20 18 17 17 17 15 16 16 22 24 23 25 28 33 39 41 45 48 49 51 51 46 52 55 62 68 68 60 83 89 88 100
Wind_Direction_500mb
182 179 171 170 171 174 171 169 166 161 159 161 160 157 159 171 157 147 147 143 145 140 139 136 135 131 122 114 107 106 108 100 91 84 77 71 66 67 65 62 57 58 64
174 177 170 172 172 174 174 173 172 166 164 164 165 168 177 171 163 155 152 146 145 145 144 143 140 136 128 115 110 112 112 100 85 83 77 64 63 63 65 64 58 50 52
175 174 173 174 174 175 177 180 178 172 168 168 172 179 180 175 166 157 154 148 147 148 146 140 137 135 132 122 119 123 114 100 73 67 64 58 53 52 58 66 63 53 50
176 173 176 176 175 178 182 186 182 176 174 174 178 181 182 172 162 157 155 152 149 149 146 144 144 144 142 134 136 136 134 105 61 55 55 52 46 45 52 67 69 58 48
178 176 178 179 179 181 185 187 187 183 180 180 183 185 177 166 160 157 157 155 155 156 153 153 154 157 155 154 156 162 180 237 354 15 27 11 11 17 38 43 69 66 48
178 179 181 181 182 184 186 187 190 188 187 188 189 180 171 164 163 162 163 162 165 166 167 169 171 174 181 190 204 221 235 257 282 301 311 336 315 326 17 19 34 54 43
180 181 183 185 185 188 188 190 194 196 196 194 186 176 170 169 170 172 174 176 180 181 183 186 189 195 203 213 230 242 251 260 265 275 281 299 304 302 334 3 1 11 9
183 183 186 188 190 192 193 197 201 202 200 192 184 181 178 178 180 184 188 192 195 198 200 201 203 205 216 228 236 245 260 267 269 266 268 275 284 290 300 322 330 345 353
187 189 189 192 193 195 200 203 205 204 200 195 190 190 191 192 195 198 202 205 209 212 217 223 225 227 228 238 248 258 259 263 272 276 275 274 270 288 289 306 310 325 322
191 196 197 198 197 198 201 205 208 207 205 203 201 201 202 205 210 212 212 215 219 223 230 240 244 245 248 249 256 266 281 286 282 278 284 281 262 280 297 297 310 320 316
196 201 202 202 203 204 206 208 209 210 210 208 207 208 210 214 217 221 225 227 231 235 239 243 248 254 256 264 268 269 276 282 291 296 286 279 262 269 288 304 314 315 310
199 204 207 208 209 210 212 214 213 214 215 216 216 216 219 223 225 228 233 235 239 242 247 252 259 263 269 271 274 276 278 281 288 293 285 281 260 265 283 296 300 300 307
206 209 211 212 214 214 217 219 219 221 223 224 224 224 226 228 230 232 237 240 243 248 255 262 268 272 276 277 279 279 280 286 283 283 276 269 270 275 285 288 285 292 294
219 218 218 218 219 219 222 225 228 229 230 231 233 232 233 235 239 241 245 248 252 253 258 263 268 272 274 278 281 282 285 283 282 282 279 269 271 283 283 285 283 280 289
241 240 238 232 229 227 228 229 231 231 236 240 241 240 242 245 246 249 253 255 258 264 267 269 274 276 278 278 279 279 281 286 285 286 277 271 275 274 279 278 282 287 281
231 236 240 243 242 236 235 238 237 235 236 241 243 248 251 254 257 257 260 261 263 267 271 274 278 278 280 282 283 283 283 288 288 286 283 282 281 278 276 278 283 285 286
247 248 250 248 241 241 238 242 241 238 239 242 246 250 251 248 249 250 251 268 270 267 269 270 270 275 277 275 275 278 283 288 297 298 292 286 287 286 277 278 282 293 283
239 238 248 259 258 247 239 240 241 240 238 240 246 247 248 231 248 248 257 261 268 262 264 269 275 278 281 278 276 275 274 280 284 290 290 291 293 290 285 277 282 286 291
245 240 242 238 268 260 246 238 238 239 236 236 238 239 232 230 245 254 260 269 269 269 273 272 273 277 277 276 275 273 273 270 279 281 286 289 289 288 283 280 279 276 283
246 242 235 231 246 251 249 240 241 236 234 234 233 235 238 241 241 245 253 258 262 269 273 271 276 274 270 272 273 276 275 273 272 278 286 290 285 282 282 278 279 277 277
259 238 232 236 236 235 247 243 229 231 231 231 232 235 236 233 239 248 252 252 260 268 275 277 272 271 272 268 279 278 275 272 266 276 286 298 283 280 278 277 277 275 274
265 229 229 236 230 234 235 235 227 226 231 231 235 238 231 235 242 248 255 258 260 268 272 276 279 280 283 278 269 268 278 279 276 262 262 277 283 287 288 277 271 273 275
273 257 248 239 234 232 234 232 228 229 233 234 236 238 235 235 239 245 253 258 265 273 277 278 275 274 273 277 277 259 282 272 286 270 266 258 258 277 274 277 272 272 274
265 257 246 245 239 232 230 233 231 228 232 237 245 248 235 236 233 248 259 267 274 281 285 283 279 274 269 266 265 272 267 266 270 275 263 262 270 271 278 274 269 269 268
286 270 257 246 244 241 236 234 229 232 241 248 241 219 211 230 256 272 279 290 297 296 291 288 284 281 281 275 272 268 267 271 268 258 270 274 275 266 271 273 272 279 275
27 359 308 263 250 240 226 221 222 213 206 191 187 211 232 250 265 271 271 288 291 289 286 284 280 278 279 280 277 277 276 271 268 267 259 267 270 270 273 273 271 271 278
Wind_Speed_850mb
46 48 47 45 42 38 36 34 34 38 40 40 37 34 26 18 17 18 28 31 31 28 26 23 18 15 14 15 16 17 18 20 19 18 23 24 24 23 23 24 22 17 15
47 49 50 46 42 39 37 35 33 36 37 35 34 29 22 19 17 19 29 29 28 24 20 17 14 12 13 13 13 14 15 14 11 13 17 19 20 20 21 24 23 17 16
44 47 48 46 41 39 36 34 33 34 35 34 32 25 20 17 18 23 29 27 25 21 17 14 14 13 12 11 10 11 9 9 10 11 11 15 16 17 19 20 20 19 17
44 46 46 45 42 38 36 33 33 34 33 33 28 22 18 19 22 28 28 25 22 18 15 13 13 12 10 8 8 7 7 5 7 8 10 9 11 12 14 15 16 16 15
48 46 46 44 41 38 35 33 32 32 31 28 23 20 21 23 26 28 26 22 19 16 14 12 11 9 7 5 4 4 5 1 4 6 7 6 4 6 9 11 12 11 11
48 46 45 43 40 35 33 33 32 30 28 24 21 24 27 27 27 26 24 21 18 14 12 11 10 8 7 5 4 5 7 8 9 9 8 8 5 4 7 9 9 7 7
48 48 45 43 39 35 32 31 30 29 28 25 25 29 29 28 26 25 22 20 18 16 14 11 10 9 8 8 7 8 10 12 13 15 13 10 6 6 6 7 10 7 6
42 45 46 44 40 35 33 30 27 27 28 27 28 30 28 27 25 24 21 19 18 16 15 14 12 10 9 9 10 11 14 16 17 19 19 17 12 9 10 11 13 11 5
44 43 46 45 42 37 35 32 27 24 26 28 28 28 27 26 25 23 22 20 19 17 15 13 10 10 10 11 12 15 17 20 20 21 21 20 19 16 13 11 14 14 13
41 43 44 45 45 44 41 37 31 27 25 27 28 28 26 25 25 24 23 23 21 19 16 14 12 12 13 13 14 15 19 25 26 23 24 22 19 16 15 14 15 13 17
46 48 48 49 49 47 43 40 37 34 30 29 30 30 30 30 27 26 25 23 22 19 18 18 17 16 16 16 16 17 20 22 26 29 25 20 20 18 17 18 18 22 19
45 48 50 50 50 49 47 46 43 41 40 38 36 34 32 31 29 26 27 25 24 24 24 23 21 20 21 20 21 21 22 24 26 24 18 17 15 16 19 21 20 19 19
43 47 51 52 52 51 52 50 47 45 45 44 42 39 37 35 33 32 30 28 28 27 27 26 25 26 25 25 26 26 26 27 27 29 22 20 21 22 25 26 26 22 20
37 40 45 49 51 53 55 52 50 49 47 47 46 43 43 41 39 37 34 32 31 30 29 29 30 29 31 30 33 32 31 32 31 34 31 28 28 26 25 24 25 26 22
39 38 41 45 48 51 55 56 56 52 49 45 43 43 44 43 42 41 39 38 37 36 34 34 34 34 36 36 37 37 37 38 38 37 36 36 37 32 30 26 22 24 26
34 36 43 49 52 52 53 58 56 53 51 44 41 40 35 35 38 38 40 43 42 40 39 39 40 40 41 42 40 40 40 41 43 40 39 39 38 37 35 29 30 23 21
25 27 34 43 54 61 59 59 56 56 51 45 41 37 32 26 24 23 23 26 38 40 38 39 40 42 43 45 45 41 39 40 38 38 41 44 43 39 33 31 30 30 26
38 33 31 36 46 53 64 65 63 56 52 44 39 33 31 21 28 32 27 23 26 29 32 34 32 31 33 39 42 41 40 38 37 38 40 40 42 41 38 36 34 30 30
40 42 36 29 29 44 47 63 66 57 51 45 38 37 35 32 38 33 34 31 31 35 31 36 35 32 36 34 33 36 39 39 40 41 46 45 46 45 45 44 39 35 34
44 46 46 40 35 42 44 47 59 58 53 53 44 37 35 36 35 37 33 27 29 34 32 38 37 37 37 34 31 36 39 43 42 45 47 51 52 54 50 50 50 47 44
39 50 50 43 38 39 47 44 50 56 58 51 43 36 37 35 36 34 32 31 33 34 34 36 38 40 46 49 54 56 51 51 51 46 44 44 50 51 57 59 60 59 57
31 42 51 50 46 42 51 49 54 58 62 52 45 41 43 39 39 36 34 33 31 32 34 35 38 42 49 45 43 47 47 55 58 71 76 60 54 47 47 50 55 58 60
18 30 42 51 53 54 60 59 59 62 55 52 52 47 42 39 32 30 30 29 28 30 31 33 38 41 44 45 47 39 29 27 45 59 68 84 69 72 64 68 60 57 52
30 33 39 49 60 65 67 67 65 60 57 54 42 42 41 30 22 22 21 23 25 26 28 30 35 42 43 47 39 54 56 54 40 42 41 63 72 76 79 85 77 74 70
29 39 46 50 56 64 61 54 54 52 47 40 36 28 20 17 17 21 18 16 19 23 26 28 32 38 41 45 45 51 59 61 51 51 57 63 67 90 88 84 85 88 87
23 17 17 23 27 29 33 30 23 16 17 20 18 17 17 17 15 16 16 22 24 23 25 28 33 39 41 45 48 49 51 51 46 52 55 62 68 68 60 83 89 88 100
Wind_Direction_850mb
182 179 171 170 171 174 171 169 166 161 159 161 160 157 159 171 157 147 147 143 145 140 139 136 135 131 122 114 107 106 108 100 91 84 77 71 66 67 65 62 57 58 64
174 177 170 172 172 174 174 173 172 166 164 164 165 168 177 171 163 155 152 146 145 145 144 143 140 136 128 115 110 112 112 100 85 83 77 64 63 63 65 64 58 50 52
175 174 173 174 174 175 177 180 178 172 168 168 172 179 180 175 166 157 154 148 147 148 146 140 137 135 132 122 119 123 114 100 73 67 64 58 53 52 58 66 63 53 50
176 173 176 176 175 178 182 186 182 176 174 174 178 181 182 172 162 157 155 152 149 149 146 144 144 144 142 134 136 136 134 105 61 55 55 52 46 45 52 67 69 58 48
178 176 178 179 179 181 185 187 187 183 180 180 183 185 177 166 160 157 157 155 155 156 153 153 154 157 155 154 156 162 180 237 354 15 27 11 11 17 38 43 69 66 48
178 179 181 181 182 184 186 187 190 188 187 188 189 180 171 164 163 162 163 162 165 166 167 169 171 174 181 190 204 221 235 257 282 301 311 336 315 326 17 19 34 54 43
180 181 183 185 185 188 188 190 194 196 196 194 186 176 170 169 170 172 174 176 180 181 183 186 189 195 203 213 230 242 251 260 265 275 281 299 304 302 334 3 1 11 9
183 183 186 188 190 192 193 197 201 202 200 192 184 181 178 178 180 184 188 192 195 198 200 201 203 205 216 228 236 245 260 267 269 266 268 275 284 290 300 322 330 345 353
187 189 189 192 193 195 200 203 205 204 200 195 190 190 191 192 195 198 202 205 209 212 217 223 225 227 228 238 248 258 259 263 272 276 275 274 270 288 289 306 310 325 322
191 196 197 198 197 198 201 205 208 207 205 203 201 201 202 205 210 212 212 215 219 223 230 240 244 245 248 249 256 266 281 286 282 278 284 281 262 280 297 297 310 320 316
196 201 202 202 203 204 206 208 209 210 210 208 207 208 210 214 217 221 225 227 231 235 239 243 248 254 256 264 268 269 276 282 291 296 286 279 262 269 288 304 314 315 310
199 204 207 208 209 210 212 214 213 214 215 216 216 216 219 223 225 228 233 235 239 242 247 252 259 263 269 271 274 276 278 281 288 293 285 281 260 265 283 296 300 300 307
206 209 211 212 214 214 217 219 219 221 223 224 224 224 226 228 230 232 237 240 243 248 255 262 268 272 276 277 279 279 280 286 283 283 276 269 270 275 285 288 285 292 294
219 218 218 218 219 219 222 225 228 229 230 231 233 232 233 235 239 241 245 248 252 253 258 263 268 272 274 278 281 282 285 283 282 282 279 269 271 283 283 285 283 280 289
241 240 238 232 229 227 228 229 231 231 236 240 241 240 242 245 246 249 253 255 258 264 267 269 274 276 278 278 279 279 281 286 285 286 277 271 275 274 279 278 282 287 281
231 236 240 243 242 236 235 238 237 235 236 241 243 248 251 254 257 257 260 261 263 267 271 274 278 278 280 282 283 283 283 288 288 286 283 282 281 278 276 278 283 285 286
247 248 250 248 241 241 238 242 241 238 239 242 246 250 251 248 249 250 251 268 270 267 269 270 270 275 277 275 275 278 283 288 297 298 292 286 287 286 277 278 282 293 283
239 238 248 259 258 247 239 240 241 240 238 240 246 247 248 231 248 248 257 261 268 262 264 269 275 278 281 278 276 275 274 280 284 290 290 291 293 290 285 277 282 286 291
245 240 242 238 268 260 246 238 238 239 236 236 238 239 232 230 245 254 260 269 269 269 273 272 273 277 277 276 275 273 273 270 279 281 286 289 289 288 283 280 279 276 283
246 242 235 231 246 251 249 240 241 236 234 234 233 235 238 241 241 245 253 258 262 269 273 271 276 274 270 272 273 276 275 273 272 278 286 290 285 282 282 278 279 277 277
259 238 232 236 236 235 247 243 229 231 231 231 232 235 236 233 239 248 252 252 260 268 275 277 272 271 272 268 279 278 275 272 266 276 286 298 283 280 278 277 277 275 274
265 229 229 236 230 234 235 235 227 226 231 231 235 238 231 235 242 248 255 258 260 268 272 276 279 280 283 278 269 268 278 279 276 262 262 277 283 287 288 277 271 273 275
273 257 248 239 234 232 234 232 228 229 233 234 236 238 235 235 239 245 253 258 265 273 277 278 275 274 273 277 277 259 282 272 286 270 266 258 258 277 274 277 272 272 274
265 257 246 245 239 232 230 233 231 228 232 237 245 248 235 236 233 248 259 267 274 281 285 283 279 274 269 266 265 272 267 266 270 275 263 262 270 271 278 274 269 269 268
286 270 257 246 244 241 236 234 229 232 241 248 241 219 211 230 256 272 279 290 297 296 291 288 284 281 281 275 272 268 267 271 268 258 270 274 275 266 271 273 272 279 275
27 359 308 263 250 240 226 221 222 213 206 191 187 211 232 250 265 271 271 288 291 289 286 284 280 278 279 280 277 277 276 271 268 267 259 267 270 270 273 273 271 271 278